Wind_Speed
6 6 6 6 6 7 7 7 8 8 8 8 9 8 8 7 7 6 6 6 7 7 7 7 7 7 8 9 10 11 11 13 13 14 16 13 11 11 9 8 6 5 3 2 2 2 2 3 2 4 5 6 5 6 8 6 5 4 2 3 4 5 5 1 2 3 2 1 2 5 7 4 3 6 10 9 11 14 12 13 13 13 15 17 18 17 17 17
8 7 7 7 8 8 8 8 8 8 9 9 9 9 9 9 8 8 7 7 7 7 8 8 8 8 8 8 10 11 12 14 15 18 20 16 13 13 11 10 8 6 4 3 2 1 2 4 4 6 7 7 7 7 7 6 6 6 3 3 5 5 3 1 4 4 3 4 3 3 6 6 5 5 8 5 7 14 13 15 16 15 16 19 22 22 23 23
9 9 9 9 9 9 9 9 9 10 10 10 10 10 10 10 10 9 9 8 8 8 8 8 8 9 9 9 9 10 11 13 17 22 21 17 16 14 13 13 10 8 6 5 4 2 4 6 6 7 9 9 10 9 7 6 5 8 5 3 6 3 5 6 5 3 3 5 5 6 5 7 9 7 6 5 7 10 12 14 15 19 23 24 25 25 26 26
10 10 10 10 10 10 10 10 10 10 10 10 11 11 11 11 11 11 11 10 10 9 9 9 8 9 9 9 10 9 10 11 15 19 17 15 17 16 16 15 13 11 9 7 6 4 4 5 5 8 10 10 12 10 7 9 7 5 6 4 6 2 4 6 4 2 3 2 5 9 7 6 10 9 8 7 5 7 13 19 20 23 27 26 27 28 28 29
11 11 11 10 10 10 11 11 11 11 11 11 11 11 12 11 12 12 12 12 12 11 11 10 9 9 9 9 10 8 7 5 5 7 7 7 11 15 17 16 15 13 11 9 7 6 5 4 4 8 9 9 11 8 7 15 12 3 7 11 14 10 4 4 1 3 4 4 6 8 7 8 9 11 14 12 7 11 14 16 20 25 26 24 26 29 29 29
12 12 12 12 11 11 11 11 12 12 12 12 12 12 12 12 12 12 13 13 13 13 12 12 11 11 10 9 9 8 5 3 3 4 6 8 9 12 16 17 16 14 12 11 9 7 5 4 5 8 8 7 8 8 10 16 14 5 8 14 19 16 8 5 4 6 6 6 7 6 7 10 9 10 15 17 20 25 19 11 13 17 20 21 24 27 29 29
14 14 14 13 13 12 12 12 12 12 13 13 13 13 14 14 13 13 13 14 14 14 14 14 14 13 12 9 10 9 10 13 15 15 16 16 13 11 15 17 15 14 13 12 10 6 5 6 9 10 8 7 9 11 10 10 11 6 7 10 17 16 11 10 8 8 9 8 10 8 8 9 10 9 12 21 30 33 28 20 18 17 16 18 20 24 27 28
16 16 16 15 15 15 14 14 14 14 14 13 13 14 14 15 15 15 15 15 15 16 16 16 16 15 13 10 9 9 14 19 19 19 19 17 14 12 14 17 16 14 13 12 11 7 7 9 12 12 8 7 7 7 3 5 8 8 8 11 14 12 11 12 11 11 11 11 12 10 10 12 16 12 14 28 33 29 27 25 24 24 22 21 22 24 25 27
18 18 18 18 17 17 17 16 16 16 16 15 15 14 15 16 16 16 17 17 17 17 18 17 17 16 13 10 7 7 12 15 15 16 15 14 14 13 14 17 16 15 14 13 12 9 9 10 11 9 5 7 10 9 4 3 4 5 8 11 11 10 11 12 13 13 12 13 11 9 11 16 19 13 17 35 37 30 28 25 25 25 25 25 25 28 28 30
20 20 20 20 20 19 19 19 19 19 18 18 17 16 16 16 17 17 18 19 19 19 19 18 18 16 13 10 4 5 10 11 11 12 13 13 13 13 15 17 17 16 14 13 12 12 11 10 10 9 8 9 10 10 7 5 4 5 8 11 13 16 18 15 15 15 14 14 13 11 9 14 16 7 13 31 25 22 27 27 28 26 26 28 26 28 30 31
21 21 21 21 21 21 21 21 21 21 21 20 20 19 19 18 18 18 18 19 19 20 20 19 19 16 13 10 7 9 14 15 13 14 15 15 14 13 15 17 18 18 16 13 12 13 13 13 13 11 8 5 6 9 8 6 7 9 8 10 14 18 21 20 17 18 15 10 15 15 8 12 11 6 19 33 19 11 18 23 26 28 29 29 27 27 29 31
24 23 23 23 23 23 23 23 23 23 22 22 22 21 21 21 20 19 19 19 20 20 20 20 19 16 13 11 15 18 19 19 19 19 19 18 16 16 15 15 16 17 18 15 14 14 14 14 14 10 8 5 6 7 4 4 7 8 5 6 12 13 15 19 19 20 15 7 12 12 5 11 10 13 32 42 28 17 16 18 21 25 29 29 29 28 29 31
26 26 26 26 26 25 25 25 25 24 24 24 24 23 23 23 22 21 21 20 20 20 20 20 19 16 11 12 20 22 20 20 20 20 21 20 18 18 16 15 14 15 16 16 16 15 14 14 12 12 11 8 6 6 7 8 6 6 5 5 8 9 9 16 19 20 14 7 13 11 2 9 9 22 35 34 27 23 20 21 21 22 26 28 30 30 30 31
27 28 28 28 28 28 28 28 27 27 27 26 25 25 25 25 24 23 23 22 22 21 20 20 19 15 10 15 23 22 20 21 21 22 23 21 19 18 16 15 14 14 15 16 17 16 15 13 11 11 12 12 10 9 9 8 4 4 5 5 5 4 6 10 10 15 11 8 17 12 4 10 8 18 29 26 23 23 23 25 24 24 26 28 30 31 32 33
24 25 26 27 28 29 29 29 29 29 29 29 28 27 27 27 26 25 24 23 23 22 22 21 18 13 10 17 24 21 19 20 20 23 22 20 19 16 14 15 15 14 14 15 15 15 13 11 10 8 8 11 11 7 5 4 5 3 3 5 4 4 7 7 3 15 12 6 16 11 3 10 12 14 17 21 24 23 23 24 23 25 27 28 31 32 33 35
22 23 23 24 25 27 27 28 29 29 30 31 30 30 29 29 29 27 26 26 24 24 22 18 16 11 8 14 20 19 18 18 19 21 20 18 16 13 14 14 13 13 13 13 12 12 11 9 9 9 6 5 5 3 3 4 5 4 5 5 6 6 8 5 2 12 12 6 11 12 5 6 9 6 4 11 21 23 21 20 21 24 26 28 30 32 34 35
22 22 23 23 24 25 26 26 27 28 29 29 30 30 29 29 29 29 28 27 25 24 20 14 11 9 10 15 18 18 20 18 17 18 17 15 13 13 14 11 9 11 10 9 10 9 9 8 6 6 8 5 4 4 3 4 6 4 5 6 7 8 8 5 1 6 10 6 8 12 9 11 9 7 6 8 17 21 20 20 21 23 25 28 30 31 33 35
22 22 22 23 24 25 25 26 26 27 28 28 28 28 27 28 28 28 27 26 22 16 14 11 7 4 10 17 16 15 16 14 13 13 12 11 11 11 11 9 7 7 6 6 8 9 9 8 5 2 5 5 4 5 5 7 7 5 6 5 6 7 8 8 3 4 10 7 7 9 10 16 14 13 18 19 17 19 21 22 24 27 29 32 32 32 33 35
21 21 22 22 23 24 24 25 26 26 27 27 26 25 26 25 24 23 22 20 15 8 7 10 12 6 5 8 10 11 13 14 13 12 12 10 9 11 12 10 8 7 6 4 5 10 10 5 4 3 6 7 8 9 10 11 10 9 10 7 8 7 7 11 8 5 11 8 8 11 11 14 16 14 17 25 25 22 24 24 25 29 31 33 33 33 34 35
20 21 22 22 23 23 24 25 25 25 26 25 25 23 20 15 12 10 11 16 18 15 15 14 15 15 13 11 13 13 15 16 15 15 15 11 9 10 13 11 7 7 7 4 4 10 11 5 4 8 11 10 9 12 14 14 13 13 12 9 9 8 8 13 10 4 9 6 8 13 12 13 17 15 13 22 24 20 20 20 23 27 30 32 32 33 36 36
20 21 21 22 22 22 23 23 23 23 23 23 23 18 11 8 7 5 7 14 21 22 24 22 19 20 22 19 19 20 19 16 17 19 18 13 11 8 11 12 6 5 8 8 5 5 7 6 9 14 15 11 9 11 12 12 13 12 10 8 8 7 10 14 8 3 7 5 7 10 11 13 16 15 14 18 18 15 18 18 22 28 31 33 31 33 37 34
21 21 22 23 23 22 22 23 23 22 21 20 19 13 9 12 12 12 12 13 21 24 23 24 24 26 27 25 25 27 22 15 17 22 21 16 16 11 12 13 7 5 7 8 6 3 5 9 13 16 13 9 11 11 9 10 10 9 6 5 7 7 10 11 4 2 3 3 5 8 10 11 14 16 15 16 15 18 25 26 27 32 32 32 33 35 34 28
22 22 23 23 23 23 22 23 22 21 20 17 15 13 12 13 12 14 13 10 17 24 25 26 28 30 31 29 29 29 23 20 20 23 25 21 20 18 14 11 8 8 6 8 9 6 7 9 13 17 14 11 13 10 8 9 8 8 6 5 8 9 9 7 2 3 4 4 6 7 8 9 12 16 15 20 25 25 30 33 34 37 35 36 39 37 30 23
23 23 23 23 24 23 22 24 23 19 17 15 13 12 11 11 9 11 11 9 11 16 24 29 29 31 32 29 29 28 26 27 22 20 27 26 21 17 14 12 9 8 8 11 13 13 12 8 7 10 10 11 12 9 7 7 8 8 7 7 10 11 11 9 5 3 4 6 5 4 8 8 10 15 14 15 20 21 24 27 29 35 38 40 40 37 31 25
24 24 24 24 24 23 23 22 19 16 13 11 10 8 7 6 5 6 8 8 8 8 14 20 21 26 30 28 27 24 19 21 22 21 24 27 24 13 9 13 11 7 11 14 13 13 13 10 9 6 4 7 8 7 7 6 8 8 7 11 15 14 12 11 8 4 3 5 2 1 7 7 7 12 12 5 5 10 14 15 19 28 36 37 33 31 32 27
24 24 25 25 25 24 22 17 16 17 14 11 10 6 5 3 2 5 6 4 7 4 6 11 12 13 17 22 25 18 7 11 20 23 20 23 27 17 6 9 9 9 10 9 9 8 5 6 9 8 7 8 6 6 7 7 8 8 4 7 10 11 9 9 7 4 3 5 2 3 2 8 7 8 8 4 6 8 9 9 14 24 32 33 28 27 27 22
24 24 24 25 25 24 20 16 17 18 13 11 10 5 4 3 2 3 3 5 8 5 8 8 8 8 10 14 22 16 2 3 11 17 20 21 25 20 9 7 7 8 5 1 5 4 4 6 5 7 8 7 7 8 8 9 7 6 2 1 1 3 5 4 3 4 4 4 3 4 4 8 13 7 7 8 8 8 8 8 11 19 28 30 30 30 26 21
24 24 25 25 24 22 20 20 19 16 13 12 9 5 4 4 2 1 1 6 4 7 6 6 7 8 10 13 22 16 1 3 6 9 20 23 21 16 11 11 8 6 6 4 7 3 3 7 8 9 7 6 8 6 5 9 7 4 1 2 3 2 1 1 1 5 3 5 5 6 7 5 13 6 8 10 10 9 10 10 12 17 24 27 30 31 26 24
24 24 25 25 25 22 19 19 16 14 15 12 7 6 4 6 2 2 2 6 1 5 4 7 7 6 9 11 16 14 2 2 1 5 14 18 19 12 5 7 8 7 5 7 10 5 0 3 4 6 7 6 5 1 2 4 5 4 2 4 5 2 1 2 2 2 2 6 7 7 9 5 13 10 6 7 8 10 10 10 13 17 22 26 28 28 24 24
25 24 24 24 25 22 18 17 15 14 15 11 7 5 5 5 1 0 7 6 1 2 4 6 6 7 11 7 6 11 6 1 3 7 7 8 14 10 2 1 3 5 5 6 8 7 1 4 3 2 5 3 4 4 3 1 3 3 3 2 2 1 1 2 2 1 1 9 8 10 14 9 9 7 5 7 9 10 10 10 12 13 19 24 24 24 24 23
26 25 24 24 25 22 17 14 15 14 14 11 5 5 6 2 1 5 9 2 2 1 5 3 4 8 12 8 5 8 7 3 5 8 5 3 8 8 3 1 1 1 3 5 7 6 2 2 0 2 4 6 6 3 1 2 0 2 3 2 1 2 2 3 1 3 2 10 5 11 17 14 10 5 3 4 8 12 12 10 12 10 14 22 24 23 24 24
27 26 26 26 25 24 19 15 14 12 11 9 4 6 3 1 4 9 5 4 1 4 4 4 5 6 8 8 5 6 6 4 8 9 6 4 5 6 6 6 5 2 3 5 5 4 5 8 7 3 3 8 6 2 1 3 1 3 4 4 1 2 1 1 2 2 5 10 4 10 14 11 13 9 2 3 5 11 11 9 13 13 14 21 23 23 24 25
27 27 27 27 27 26 23 19 16 10 9 6 5 4 1 2 7 8 6 2 1 1 2 3 7 7 7 6 4 5 5 3 8 8 6 6 5 6 8 8 6 3 5 5 3 2 3 6 6 4 2 9 10 5 4 2 4 7 6 6 5 3 3 3 4 3 6 9 4 7 9 6 8 6 9 12 10 11 13 16 18 16 16 19 20 20 23 25
26 27 30 29 29 28 25 22 17 12 9 5 6 2 0 8 8 1 5 6 4 1 1 2 6 8 6 5 4 7 5 3 7 8 5 6 5 5 7 10 11 6 2 2 2 4 4 7 7 8 3 12 15 12 10 4 5 9 6 6 6 4 3 3 5 6 5 6 4 3 4 4 3 2 12 16 15 15 19 25 26 19 17 20 20 19 22 24
25 26 31 31 30 28 27 25 20 15 11 9 7 2 5 10 7 2 4 6 4 2 0 2 3 6 5 5 3 7 8 5 7 8 5 7 6 6 6 8 14 9 3 3 3 4 5 9 7 7 2 12 14 12 9 6 2 6 5 4 5 5 5 4 6 7 3 5 6 4 4 6 5 6 9 11 12 15 17 22 22 18 19 23 22 20 22 24
26 27 31 35 36 32 29 29 24 20 18 14 7 5 11 10 5 2 2 2 3 2 2 1 2 4 5 4 3 6 6 4 5 6 4 7 7 8 6 5 12 14 8 6 3 3 4 6 3 4 3 5 6 4 5 3 2 3 4 5 5 3 6 4 6 5 2 6 9 5 6 8 8 10 11 11 12 12 12 14 14 16 22 25 22 21 23 24
28 28 32 38 40 36 33 31 27 26 24 17 8 8 10 8 9 8 5 3 5 4 2 4 4 5 6 4 4 7 4 1 4 5 3 4 5 9 9 6 11 17 16 11 3 3 5 6 3 3 2 3 1 4 1 2 1 5 3 5 1 3 1 3 2 3 3 7 9 7 9 10 9 9 5 9 13 13 13 13 12 16 22 21 19 22 25 25
25 27 33 40 41 39 36 33 31 31 23 12 8 12 8 6 9 10 10 8 9 6 4 6 5 6 7 6 4 7 7 4 5 5 4 4 4 8 10 7 11 18 22 18 7 3 4 5 4 1 1 2 2 2 2 3 1 5 2 2 2 1 1 3 3 2 5 6 8 11 14 12 12 10 5 5 12 14 14 14 14 16 16 15 18 24 26 26
19 19 25 33 34 33 35 36 35 32 18 6 9 11 6 6 9 12 16 13 9 5 7 8 6 5 6 7 5 4 9 8 7 5 5 5 5 7 11 9 9 16 23 20 9 4 3 4 5 1 2 2 2 1 4 3 2 2 3 4 1 2 3 4 4 3 5 6 7 12 15 13 10 8 7 9 13 14 12 12 12 13 13 16 21 25 25 25
16 11 14 23 21 18 27 34 33 25 10 4 8 9 5 5 7 14 22 18 7 4 7 7 7 7 7 9 10 5 6 7 7 5 5 6 5 5 9 10 6 11 18 18 11 5 2 3 6 1 3 1 2 4 8 8 6 3 1 3 3 2 1 1 3 3 5 6 6 6 12 14 5 3 5 8 10 11 11 10 10 10 14 21 24 25 24 25
14 7 10 17 14 9 20 27 20 12 4 2 6 9 8 6 6 9 18 19 12 9 11 10 9 9 9 10 10 7 5 5 6 6 5 6 7 5 6 11 8 7 10 8 7 7 3 4 6 2 1 6 8 9 13 15 12 10 8 9 8 7 4 3 7 6 4 4 6 6 11 16 5 6 4 6 9 10 11 11 10 10 16 22 22 24 23 23
12 6 9 13 8 10 23 18 6 5 5 4 7 6 5 6 8 9 15 19 15 11 11 11 10 10 10 10 10 9 7 5 5 7 6 7 10 6 6 13 13 10 9 6 8 10 6 3 5 7 8 11 11 7 9 12 10 6 6 8 8 8 8 8 9 6 3 3 6 7 12 17 6 7 5 3 7 8 10 11 9 10 18 22 21 22 23 23
13 11 12 14 10 15 21 8 2 6 3 4 7 8 8 6 4 6 9 12 11 9 9 8 9 12 11 9 9 9 8 7 8 10 9 7 7 7 8 11 13 9 7 4 5 7 4 3 5 8 6 8 8 2 2 2 1 3 5 6 8 9 10 10 8 6 5 5 8 9 12 16 7 4 4 4 6 4 6 10 9 10 17 20 20 22 25 26
13 16 16 16 16 20 17 4 2 6 5 6 6 10 15 10 7 10 9 8 8 6 6 8 10 12 9 7 8 8 7 7 7 10 10 7 5 12 18 14 7 5 6 3 2 6 5 2 6 7 6 6 7 5 4 4 0 3 6 7 9 10 10 8 5 5 7 10 15 14 10 12 9 2 4 5 6 5 7 10 11 13 17 21 24 26 28 29
10 12 14 19 25 29 22 13 11 8 7 11 11 13 15 10 12 21 19 15 15 11 7 8 9 9 8 6 8 9 9 8 5 6 8 8 9 13 18 20 15 7 5 9 7 5 7 4 5 7 8 8 9 9 6 2 2 2 5 8 10 10 11 9 6 6 9 14 18 15 10 13 14 11 10 12 11 9 10 13 16 17 20 23 26 28 28 29
6 5 7 13 27 34 26 22 21 12 8 12 10 11 15 12 13 25 25 19 20 22 16 10 6 6 7 8 10 11 12 12 8 5 5 6 7 7 11 14 12 10 13 15 11 1 1 2 8 12 12 11 12 12 9 4 3 4 5 9 10 10 12 10 7 9 11 13 14 13 13 17 18 20 22 21 18 16 16 16 16 19 22 23 23 24 27 30
5 4 3 3 12 21 21 19 19 12 10 12 6 5 15 17 11 16 20 17 19 22 16 9 9 8 7 10 11 11 13 12 11 10 10 10 8 8 13 15 11 14 16 10 3 1 1 4 12 15 17 16 15 17 17 15 14 13 12 13 11 11 13 13 12 15 15 14 13 12 16 20 19 20 24 24 22 19 15 14 17 23 28 27 24 23 25 28
6 6 7 5 2 5 9 10 11 9 10 13 8 6 14 18 14 12 13 14 17 17 9 6 12 17 17 16 13 10 11 10 9 11 11 12 11 11 14 15 15 18 15 6 4 4 3 6 9 11 15 16 15 17 19 19 19 18 17 18 15 12 13 15 18 21 18 15 14 14 20 23 20 17 20 21 19 16 16 21 27 32 35 35 32 27 25 25
10 11 14 13 7 4 9 12 11 8 8 9 7 8 13 17 18 16 11 8 10 11 11 11 13 17 21 22 17 12 11 11 11 12 12 12 13 10 8 9 12 13 11 6 4 4 4 6 9 12 16 16 16 18 19 20 20 19 19 19 17 15 16 18 20 20 18 18 19 21 24 24 19 17 18 19 20 22 26 33 37 37 38 39 36 29 26 29
10 9 11 12 8 8 15 16 10 7 7 8 6 7 11 15 18 16 11 10 8 6 12 18 19 18 19 19 18 16 16 17 18 17 14 11 10 8 7 8 7 4 5 5 3 3 5 7 10 11 12 14 17 19 20 21 21 22 23 20 17 19 22 23 22 18 16 19 23 24 23 20 17 17 18 20 25 29 31 33 35 38 39 38 35 31 32 35
14 12 12 11 7 7 11 10 7 6 6 6 5 5 9 13 15 13 12 16 17 12 10 15 18 16 15 17 18 19 22 25 26 27 25 19 14 13 10 8 9 6 5 6 5 4 6 7 7 8 9 11 15 19 22 23 23 23 23 21 22 23 23 21 20 19 19 22 24 22 18 16 16 16 15 18 24 27 26 25 28 35 40 37 33 33 34 35
15 16 15 12 7 6 8 7 7 8 7 6 7 7 9 12 12 12 12 13 19 22 20 19 17 13 13 18 20 22 26 28 30 34 36 32 26 24 19 13 14 12 7 7 6 5 7 6 6 7 9 10 14 20 21 19 17 15 16 22 29 29 25 21 20 22 24 22 19 16 17 17 15 13 15 19 24 24 23 24 25 29 35 37 35 34 34 36
Wind_Direction
323 327 330 333 339 343 346 348 351 352 354 355 356 358 358 359 355 348 342 331 322 318 318 321 319 314 305 296 290 283 280 277 276 274 267 260 254 259 262 261 266 266 271 276 276 279 259 290 260 211 227 253 251 229 241 243 215 204 190 224 240 248 249 284 331 352 4 331 111 176 190 213 224 185 212 232 233 235 241 242 235 232 236 240 243 242 241 244
316 319 322 326 329 333 336 338 342 344 346 347 349 352 353 355 356 356 352 346 334 322 316 313 311 311 308 300 293 288 283 281 278 270 262 257 254 255 253 246 249 252 253 243 246 270 255 285 268 220 223 241 241 223 233 234 203 212 231 243 243 260 263 297 337 341 347 323 324 208 194 223 248 198 200 224 231 224 233 242 233 232 234 237 240 240 243 245
312 314 317 321 323 328 330 332 335 337 340 341 342 344 347 349 350 353 353 353 348 338 328 316 310 306 306 303 299 294 290 288 279 271 265 258 252 250 248 243 241 244 246 241 245 238 232 254 250 227 228 240 237 217 219 219 202 223 230 262 252 274 321 314 329 311 302 311 309 288 230 214 244 231 186 210 246 226 226 233 223 224 229 232 236 237 240 243
310 311 313 317 320 322 324 327 330 332 335 337 338 340 342 345 346 348 348 351 351 347 342 331 320 308 303 301 302 302 302 296 276 275 278 264 251 245 243 240 237 240 243 244 249 243 243 250 242 234 233 244 240 216 207 207 202 218 204 228 261 284 330 310 334 296 274 285 280 287 278 234 242 241 209 208 254 245 236 235 226 227 234 232 231 237 242 242
308 309 310 313 316 319 321 323 325 328 331 332 334 335 337 341 342 345 345 346 347 347 346 340 334 324 312 300 298 301 306 305 274 288 314 286 255 243 239 238 235 237 239 242 247 249 268 271 246 238 234 253 245 217 217 217 210 238 234 243 263 269 282 295 314 243 244 252 262 273 271 253 246 239 224 212 222 244 239 239 236 235 240 237 232 237 241 242
304 306 306 309 311 314 316 318 321 323 325 327 330 330 332 335 337 340 340 341 342 342 343 340 337 333 325 307 293 285 264 257 273 297 320 318 290 252 237 236 235 236 238 240 244 249 268 262 234 230 230 251 246 233 241 219 203 229 253 250 262 264 267 277 263 244 247 248 248 252 260 256 251 244 233 223 230 245 247 242 251 244 236 237 238 237 236 239
301 302 302 304 306 308 309 311 314 315 318 320 323 324 325 327 330 333 333 335 335 336 338 336 334 331 328 310 290 278 249 254 272 280 288 297 295 267 241 235 234 236 237 239 242 246 262 252 234 238 238 245 251 253 244 199 186 225 262 264 274 275 265 264 264 254 250 245 244 252 271 256 241 247 247 240 241 249 254 252 257 259 242 234 236 236 237 241
297 299 299 301 302 303 304 305 306 308 310 311 314 317 318 320 322 324 326 327 328 330 331 331 332 331 328 311 298 287 260 263 277 283 288 291 285 271 248 237 236 238 239 239 239 239 257 258 250 252 250 249 275 290 250 174 192 222 250 260 270 274 261 261 262 257 252 247 247 253 264 251 242 253 264 255 252 252 254 254 252 254 254 245 242 242 241 243
295 296 297 298 299 300 300 302 302 302 303 304 307 308 310 312 315 318 319 321 322 323 325 326 328 329 326 312 299 283 272 276 283 283 288 289 280 265 250 242 240 240 240 241 237 230 240 256 262 269 290 288 296 307 279 219 212 224 261 273 282 284 276 268 254 246 245 245 240 242 251 252 252 260 269 260 257 256 252 249 246 247 251 248 245 246 246 246
294 294 295 296 297 298 298 299 300 300 300 301 303 303 305 305 307 310 311 314 315 317 320 321 325 327 320 308 274 255 286 291 285 284 286 287 279 260 249 246 245 243 243 243 238 231 231 247 267 283 305 301 297 289 258 223 250 292 304 302 298 289 282 272 258 246 238 239 226 221 244 254 252 239 261 264 262 258 250 244 243 241 245 246 243 244 246 249
294 294 294 295 295 296 296 297 298 299 299 300 301 301 301 300 302 303 304 308 309 311 314 316 321 321 313 296 238 245 287 291 286 290 290 287 280 265 257 250 247 246 244 241 239 239 233 238 255 272 285 284 303 289 246 224 264 291 316 310 287 278 272 258 252 245 234 237 222 219 256 260 244 200 246 258 259 249 242 239 240 236 238 243 242 240 242 247
294 294 294 294 294 294 294 295 295 296 297 297 298 299 300 300 299 299 300 303 304 306 309 313 317 316 310 281 254 266 287 288 285 287 286 285 279 270 266 257 251 248 245 240 239 245 241 242 247 250 257 268 305 297 246 255 287 292 306 303 280 274 267 249 242 233 221 228 210 202 274 262 224 217 246 257 255 244 238 234 234 231 233 237 240 239 239 245
294 294 294 294 294 294 293 293 293 294 294 293 294 296 297 298 298 299 299 299 301 302 305 309 312 312 301 270 274 285 289 286 285 284 281 281 277 269 264 260 255 249 246 240 237 244 246 250 248 240 251 264 280 278 281 297 292 277 259 250 276 286 269 249 238 218 205 200 179 161 264 262 222 219 240 260 255 237 233 233 232 229 229 233 239 241 241 244
293 294 295 295 295 294 294 294 294 293 292 291 292 293 294 295 296 297 297 298 299 300 302 304 307 305 280 273 288 289 283 282 281 278 278 277 273 267 261 258 257 251 248 244 242 246 248 253 251 246 254 250 253 274 291 290 254 255 270 246 252 277 271 264 231 186 182 186 170 156 248 260 263 228 232 254 248 225 223 228 229 228 230 234 239 242 243 245
293 294 295 296 296 296 296 296 296 295 293 292 291 291 291 291 292 293 294 295 295 296 299 300 300 293 268 277 287 285 280 278 273 274 276 275 270 266 259 254 255 253 249 247 246 248 250 249 242 242 255 246 247 273 294 274 244 214 250 258 227 229 260 283 199 171 175 178 173 167 240 250 268 258 239 245 235 214 215 224 225 227 232 237 241 243 245 248
292 293 294 296 296 296 297 298 298 297 296 295 295 293 291 290 289 289 290 291 292 293 295 294 290 280 262 276 281 279 276 271 271 277 278 276 267 256 256 256 255 253 249 247 247 247 245 240 237 240 250 244 223 231 267 272 265 212 198 247 239 237 260 270 210 186 175 136 182 197 229 245 249 255 228 218 213 205 211 222 224 229 235 240 244 244 246 249
290 291 292 293 294 295 296 296 297 297 296 297 297 297 295 293 290 288 287 287 288 288 286 280 276 271 257 269 275 270 268 270 277 281 280 274 258 246 251 255 252 250 248 246 247 241 231 225 225 240 240 234 214 211 242 257 260 238 207 236 240 240 256 253 281 219 188 144 195 211 233 253 248 246 246 203 196 201 211 222 231 240 243 246 249 247 247 249
291 291 291 292 292 293 294 295 295 295 295 296 299 300 299 298 296 291 286 282 280 281 280 250 224 256 259 256 258 256 263 276 282 285 282 266 248 243 237 234 239 241 237 241 243 225 214 216 205 236 249 224 213 202 206 228 238 249 239 255 260 247 249 253 277 207 190 184 213 212 229 249 255 259 262 257 234 217 221 231 243 251 252 253 254 252 252 251
296 296 295 295 294 293 295 295 294 294 294 295 297 299 300 302 298 290 279 269 254 245 267 224 195 206 254 250 251 255 267 278 280 280 274 256 243 239 223 216 216 209 207 211 221 202 189 196 199 224 250 224 210 206 214 231 242 261 267 270 272 270 265 264 275 186 182 197 219 219 229 245 254 253 255 261 256 242 239 241 244 249 251 254 254 254 254 252
301 301 300 299 297 298 300 299 297 296 297 296 297 302 305 306 300 288 263 249 244 246 255 236 215 230 247 259 264 267 272 276 276 270 268 257 237 231 217 209 202 206 219 202 186 190 183 185 206 221 238 230 216 218 225 238 247 259 267 269 267 272 271 268 277 207 186 200 218 224 233 243 254 256 250 258 261 254 250 248 246 248 250 253 254 255 255 253
306 305 305 304 303 304 305 304 302 300 300 299 302 309 307 294 287 285 269 264 265 263 258 251 242 241 247 251 254 262 268 272 271 263 265 251 223 217 202 195 190 204 220 221 218 192 187 206 220 227 240 242 238 237 238 243 247 253 257 267 270 265 267 272 280 207 187 204 231 237 245 249 256 262 259 257 257 253 252 252 252 254 256 258 259 259 259 257
309 309 310 310 309 311 312 311 309 305 304 302 302 303 284 278 279 276 281 280 273 267 260 256 249 243 245 245 249 257 258 261 261 251 252 238 212 205 189 183 195 208 195 209 227 217 214 230 232 238 249 254 255 253 255 260 260 264 266 273 274 268 275 280 280 195 183 192 241 252 255 257 260 263 262 257 252 250 251 251 253 256 260 262 263 261 261 258
311 311 313 314 315 317 319 318 315 310 307 304 301 295 283 284 282 279 281 276 273 265 253 249 244 240 243 243 246 250 243 243 248 243 245 233 203 199 196 182 204 218 186 194 211 217 226 228 232 244 251 251 255 247 246 268 265 254 253 262 266 261 268 278 252 198 205 210 243 269 267 260 264 265 262 256 253 252 252 252 254 257 259 260 261 262 259 253
313 314 314 317 318 321 325 322 318 316 312 307 305 298 289 286 283 293 289 269 271 261 252 252 244 238 241 242 245 241 235 240 241 239 241 225 196 195 207 202 212 220 211 212 216 227 238 229 214 236 241 235 245 243 234 255 259 242 225 231 252 253 252 256 252 215 222 233 240 293 288 263 244 251 258 256 251 249 247 247 251 255 257 258 259 260 259 250
314 314 315 318 318 323 330 324 321 326 322 315 318 313 304 295 277 312 313 276 260 235 242 247 236 236 238 236 237 232 232 240 236 234 232 215 196 188 203 207 211 222 221 224 229 238 244 230 205 206 223 218 228 239 218 218 258 260 215 217 240 253 257 261 280 319 306 267 219 178 286 268 210 225 249 258 223 234 236 233 240 247 253 257 255 258 260 250
311 312 314 316 316 323 329 326 324 327 321 310 316 319 303 283 238 320 338 287 262 185 181 208 210 227 226 221 218 209 232 250 231 228 222 210 203 195 193 198 207 229 220 221 240 246 233 201 193 200 216 220 224 245 218 203 257 273 229 219 240 255 264 265 280 295 260 267 241 127 284 284 257 225 240 233 190 220 227 218 234 240 245 250 252 259 264 250
307 308 311 311 314 321 323 322 323 324 316 302 309 315 286 233 203 329 3 283 262 159 142 178 179 187 192 199 193 182 225 230 203 214 205 202 203 199 209 199 198 226 201 159 257 235 162 161 172 198 213 220 227 245 224 198 235 267 266 270 231 253 264 261 263 243 241 290 272 164 147 279 279 246 201 202 194 216 229 221 236 240 240 245 254 261 262 250
302 304 306 307 309 314 316 317 323 328 316 305 305 288 252 198 193 11 22 276 260 125 133 173 170 184 177 173 181 181 178 135 152 201 195 195 195 194 222 224 218 221 166 168 237 251 147 184 201 199 196 217 224 240 216 186 211 250 9 44 79 85 329 72 230 250 291 321 271 186 151 244 277 256 173 185 193 209 222 220 230 239 238 240 249 256 255 248
297 298 301 302 304 308 311 312 320 329 318 312 300 264 217 182 190 28 241 256 219 113 135 160 161 180 161 155 187 203 231 115 157 184 182 192 192 187 233 239 250 260 215 212 232 260 73 178 215 189 186 224 214 75 26 177 205 216 139 72 75 80 38 78 231 261 354 289 251 183 159 210 274 268 190 187 204 208 214 220 228 237 239 237 240 245 244 241
291 293 295 295 297 300 305 308 314 327 327 318 290 235 182 178 168 253 234 248 338 95 117 147 166 160 151 141 201 217 214 167 108 131 155 191 195 198 270 257 267 282 271 267 258 258 152 76 22 210 195 194 126 85 23 70 160 166 133 78 61 283 23 67 238 103 36 271 249 184 178 193 270 280 172 185 200 195 203 219 229 235 240 239 236 236 234 231
285 286 286 285 288 291 293 296 303 320 331 319 277 187 167 172 147 227 231 262 355 163 115 147 179 144 159 175 198 199 199 192 137 144 165 177 188 204 232 204 172 313 298 285 270 259 214 137 255 221 176 132 107 98 22 24 90 128 117 117 1 299 16 38 293 102 203 265 247 175 181 191 235 269 119 181 192 189 199 213 219 218 231 236 233 233 231 227
285 282 279 279 281 281 277 279 290 308 325 314 239 177 170 239 231 232 232 42 31 194 147 171 178 160 186 209 213 173 174 189 166 171 188 162 174 197 203 200 163 148 265 239 239 245 235 227 205 181 184 169 150 108 33 353 306 147 135 139 137 285 314 330 250 151 217 257 240 171 179 199 235 251 246 236 199 194 207 218 214 203 211 227 228 230 228 222
286 282 277 271 272 273 271 276 279 282 310 303 207 168 46 257 238 228 206 192 244 182 104 149 172 180 188 203 218 167 177 206 166 179 196 170 192 211 213 223 200 214 243 206 207 206 258 270 188 161 253 186 170 176 214 249 189 177 159 149 164 204 240 246 241 235 239 259 264 169 175 222 263 253 214 223 221 201 207 217 216 204 201 217 228 231 225 215
283 282 279 271 268 269 268 270 264 258 280 258 192 125 90 237 248 202 175 211 242 249 34 74 162 185 199 210 199 157 182 230 161 175 195 169 196 222 211 223 220 233 248 192 234 188 243 290 182 168 207 176 180 207 206 148 161 194 173 161 191 186 192 231 233 243 259 278 275 166 168 230 276 204 191 208 219 207 204 214 217 212 210 223 235 231 216 208
278 277 277 273 265 262 262 261 252 243 237 192 167 172 209 231 251 261 234 239 246 219 99 17 157 183 226 234 199 177 201 224 167 168 197 186 202 216 200 206 206 206 167 189 247 171 230 273 186 157 149 162 181 220 199 118 144 211 156 167 229 199 185 239 258 248 266 305 271 206 213 245 261 258 220 210 220 212 208 215 217 213 217 230 235 220 206 207
274 270 271 267 261 258 257 254 247 236 217 178 153 221 222 232 240 220 268 253 254 238 123 286 210 183 235 228 203 211 213 232 181 167 207 212 222 224 206 192 193 196 187 184 221 178 226 280 161 113 354 169 180 240 187 150 209 185 149 195 222 170 167 215 277 280 258 278 272 235 242 274 294 275 240 211 217 216 211 217 216 211 219 228 227 212 208 212
270 266 264 260 258 259 255 251 245 228 206 176 167 222 224 236 233 236 284 330 315 313 156 222 213 181 224 231 206 204 189 237 189 172 193 205 224 220 210 208 185 191 203 200 216 236 226 269 215 154 306 258 298 344 314 301 125 135 181 221 196 38 95 165 260 311 258 258 272 263 261 276 284 278 238 194 207 214 210 211 211 214 220 226 221 216 220 223
271 267 263 260 259 256 252 251 238 214 194 170 204 229 230 239 231 240 269 296 315 306 250 248 224 184 221 244 222 181 170 187 180 175 209 205 218 198 188 208 187 186 205 208 221 262 206 251 258 162 349 318 359 347 301 320 51 139 212 278 106 101 230 166 173 222 238 251 274 278 279 273 257 261 276 213 205 207 208 208 209 215 219 222 222 224 227 228
277 272 265 266 261 253 253 248 222 197 183 173 212 225 237 253 255 263 271 287 315 296 260 266 257 230 240 254 261 184 176 195 184 176 207 207 224 192 169 188 194 190 201 200 209 249 180 218 255 287 355 348 9 219 195 234 255 97 3 337 80 159 178 181 186 192 214 240 268 283 288 278 250 239 242 217 198 198 202 205 211 218 220 219 222 227 227 225
281 272 266 271 269 262 250 232 202 181 178 200 209 227 253 271 273 260 256 263 280 265 262 274 272 270 271 272 279 261 206 209 202 202 214 198 221 222 177 178 185 195 201 197 201 219 166 215 233 282 355 305 229 201 184 192 200 175 214 246 211 183 121 202 248 222 205 223 244 267 277 273 258 155 198 190 181 193 195 200 211 219 224 222 222 227 229 228
274 265 267 270 276 256 218 204 185 174 191 215 218 239 252 268 288 265 258 264 268 262 264 271 274 275 279 278 276 271 247 228 215 220 229 216 233 253 185 181 179 174 187 195 202 199 177 213 214 199 237 236 233 211 199 202 197 186 195 206 203 192 173 229 246 232 204 215 228 232 260 267 259 100 126 160 174 196 193 199 212 213 222 226 226 230 235 238
256 251 263 262 263 199 190 186 182 192 192 209 222 236 255 262 270 269 269 271 271 269 269 274 273 267 271 273 271 276 273 260 244 235 239 240 239 243 195 192 189 167 162 184 211 199 175 162 210 221 228 243 251 224 208 219 215 211 216 206 203 193 187 215 230 228 216 215 232 236 250 259 260 84 74 134 171 202 196 190 199 210 220 225 226 232 240 245
242 245 253 256 253 204 189 184 249 209 211 260 241 251 259 252 264 267 261 257 253 254 254 261 266 259 262 268 267 278 280 270 263 255 267 275 252 279 284 227 203 180 172 197 216 194 155 118 210 234 250 268 278 294 18 333 204 230 247 215 207 206 206 221 225 225 228 211 226 240 244 257 268 88 103 140 143 191 211 189 188 209 219 222 227 238 248 252
252 257 250 246 238 210 193 183 235 212 238 263 258 258 253 250 254 254 252 238 229 233 242 245 250 253 262 276 272 277 280 272 266 263 277 291 293 319 320 298 261 217 206 237 220 176 182 197 208 235 259 267 273 274 302 336 125 217 241 226 225 226 225 241 247 235 241 231 234 244 248 261 270 173 155 181 171 195 228 220 222 234 238 240 245 252 256 257
264 261 244 233 217 205 205 216 220 220 223 229 238 241 242 249 241 238 244 245 236 232 241 241 234 237 251 271 270 265 259 254 257 268 274 276 285 306 313 313 318 303 279 331 349 181 193 208 194 222 240 230 239 246 237 210 166 220 246 236 234 229 224 236 245 234 237 236 237 245 255 263 272 278 266 255 247 248 257 256 252 251 253 251 251 254 256 253
266 249 230 223 207 207 220 229 228 233 217 219 233 229 231 241 237 235 239 243 239 235 236 236 217 218 233 239 250 255 249 240 233 238 245 248 263 267 262 278 297 283 292 332 350 337 197 249 222 229 238 233 239 253 262 265 225 223 239 235 232 230 226 229 234 235 242 246 243 244 254 261 268 273 272 269 269 272 275 276 273 269 267 261 251 249 250 248
276 258 219 213 204 215 231 233 231 235 215 214 213 194 225 235 238 237 232 232 235 232 234 236 215 213 222 224 237 248 245 240 232 232 237 237 242 248 251 262 272 267 276 301 306 256 9 249 240 242 244 244 250 257 266 272 264 257 259 254 243 231 226 226 231 235 239 249 251 244 251 258 258 259 267 274 276 276 277 279 281 280 278 274 268 260 255 251
267 277 268 296 298 222 232 236 245 254 233 225 216 203 230 234 232 232 227 232 234 224 223 236 216 218 227 227 232 238 237 242 237 230 236 239 241 251 260 266 261 252 252 244 197 192 198 234 245 255 255 255 259 260 261 265 264 262 262 261 256 245 232 229 235 239 239 246 256 252 250 254 257 257 263 269 276 283 288 285 283 283 283 284 282 278 270 264
262 277 281 289 301 304 305 306 303 291 260 250 242 229 236 237 235 233 223 229 237 213 212 235 226 218 224 226 230 232 228 235 240 233 228 226 228 234 247 253 250 239 224 217 208 176 191 238 237 245 256 255 254 257 257 258 263 264 260 256 257 261 255 247 245 247 249 254 258 258 256 258 262 264 265 272 283 289 288 285 283 282 283 283 283 280 276 274
255 267 293 304 303 299 302 300 300 298 275 263 254 239 246 248 247 247 233 228 240 205 203 229 237 230 228 228 230 232 227 229 241 243 235 225 217 217 230 233 233 227 195 204 225 182 201 229 222 230 252 248 242 247 247 247 252 255 256 257 256 258 258 256 257 256 256 257 255 256 261 264 264 265 270 279 284 282 280 279 279 279 281 281 281 280 278 278
258 272 297 310 302 292 294 285 278 289 274 250 242 240 249 251 251 260 257 245 249 248 228 236 244 242 242 240 234 234 233 231 237 242 241 240 230 215 215 208 199 203 198 194 197 176 191 218 216 221 245 239 230 236 239 240 242 245 252 259 257 252 249 247 249 249 247 251 254 256 258 257 256 261 268 272 271 269 268 269 272 276 278 278 279 278 277 278
267 276 284 290 285 273 279 286 286 284 273 257 258 254 254 260 258 259 265 253 247 250 252 253 255 255 253 249 243 243 245 244 247 251 252 255 252 240 234 222 204 199 189 189 202 186 184 209 212 213 239 242 229 233 237 238 241 238 233 238 242 245 246 245 245 245 244 246 250 250 249 251 255 259 260 260 259 260 261 262 263 268 273 275 275 276 277 279
Height
1551 1551 1551 1550 1550 1549 1549 1548 1548 1547 1547 1546 1546 1545 1545 1544 1543 1543 1542 1541 1541 1540 1540 1539 1539 1539 1538 1538 1537 1537 1537 1536 1536 1535 1533 1533 1534 1534 1534 1534 1534 1534 1534 1533 1533 1533 1533 1533 1533 1534 1534 1534 1534 1533 1533 1534 1534 1535 1535 1537 1536 1530 1525 1519 1516 1516 1516 1516 1515 1516 1516 1516 1516 1516 1516 1517 1517 1517 1517 1517 1517 1518 1518 1518 1518 1517 1517 1518
1552 1551 1551 1550 1550 1549 1549 1548 1548 1547 1547 1546 1546 1545 1545 1544 1544 1543 1542 1542 1541 1540 1540 1539 1539 1538 1538 1537 1537 1536 1536 1535 1534 1532 1531 1532 1533 1533 1533 1534 1533 1534 1533 1533 1533 1533 1533 1534 1534 1534 1534 1534 1533 1532 1533 1532 1533 1533 1532 1533 1531 1524 1519 1514 1513 1513 1514 1515 1515 1515 1515 1515 1516 1515 1515 1516 1515 1515 1516 1515 1515 1516 1516 1515 1515 1515 1514 1516
1552 1551 1551 1551 1550 1550 1549 1549 1548 1548 1547 1546 1546 1545 1544 1544 1543 1543 1542 1542 1541 1540 1540 1539 1538 1538 1537 1537 1536 1536 1535 1534 1532 1529 1529 1531 1531 1532 1533 1533 1533 1533 1533 1533 1533 1533 1533 1534 1534 1534 1534 1533 1532 1532 1532 1532 1532 1530 1531 1532 1526 1519 1516 1513 1512 1513 1513 1514 1514 1514 1514 1514 1515 1514 1514 1514 1514 1513 1512 1511 1512 1513 1512 1512 1512 1512 1512 1513
1552 1551 1551 1550 1550 1550 1549 1549 1548 1547 1547 1546 1546 1545 1544 1544 1543 1543 1542 1542 1541 1540 1540 1539 1538 1537 1537 1536 1536 1535 1535 1534 1530 1526 1527 1528 1529 1530 1531 1532 1532 1532 1532 1533 1532 1532 1533 1533 1533 1533 1533 1532 1531 1531 1530 1530 1530 1528 1528 1528 1521 1516 1516 1514 1512 1513 1513 1514 1514 1514 1514 1513 1513 1514 1513 1513 1514 1511 1507 1507 1508 1507 1507 1509 1509 1509 1509 1510
1552 1551 1551 1550 1550 1549 1549 1548 1548 1547 1547 1546 1545 1545 1544 1544 1543 1542 1542 1541 1541 1540 1539 1539 1538 1537 1536 1536 1536 1535 1535 1534 1528 1526 1527 1526 1528 1529 1529 1530 1531 1531 1532 1532 1532 1532 1532 1532 1532 1532 1533 1531 1530 1529 1528 1526 1527 1526 1524 1521 1518 1516 1516 1514 1513 1513 1513 1514 1514 1514 1513 1512 1512 1512 1510 1511 1512 1506 1503 1504 1504 1504 1505 1506 1506 1506 1507 1507
1551 1551 1550 1550 1550 1549 1549 1548 1548 1547 1546 1546 1545 1545 1544 1543 1543 1542 1541 1541 1540 1540 1539 1538 1538 1537 1536 1535 1535 1534 1535 1533 1527 1526 1527 1526 1528 1528 1528 1529 1530 1530 1531 1531 1531 1532 1531 1532 1532 1532 1531 1530 1528 1527 1525 1523 1524 1525 1522 1518 1516 1515 1515 1513 1513 1513 1513 1513 1513 1513 1512 1511 1511 1510 1508 1508 1505 1499 1501 1504 1503 1502 1504 1504 1503 1502 1503 1503
1550 1550 1550 1549 1549 1549 1548 1548 1547 1547 1546 1546 1545 1544 1544 1543 1543 1542 1541 1541 1540 1539 1538 1538 1537 1536 1536 1535 1534 1534 1533 1529 1526 1526 1526 1526 1527 1527 1527 1528 1529 1529 1530 1530 1531 1531 1531 1531 1531 1531 1530 1529 1527 1523 1522 1521 1522 1524 1521 1517 1515 1514 1513 1513 1513 1512 1512 1512 1512 1512 1511 1510 1510 1508 1508 1503 1498 1497 1500 1502 1502 1502 1502 1502 1501 1500 1499 1500
1549 1549 1549 1548 1548 1548 1548 1547 1546 1546 1545 1545 1545 1544 1543 1543 1542 1541 1541 1540 1539 1539 1538 1537 1536 1535 1535 1534 1533 1533 1531 1527 1525 1526 1526 1526 1526 1526 1527 1527 1527 1528 1528 1530 1530 1531 1531 1531 1530 1529 1528 1526 1524 1522 1521 1521 1522 1522 1519 1516 1515 1514 1512 1512 1512 1511 1511 1511 1511 1511 1510 1509 1508 1508 1506 1497 1494 1497 1498 1500 1500 1500 1500 1500 1499 1498 1498 1497
1548 1548 1548 1547 1547 1547 1546 1546 1545 1545 1544 1544 1544 1543 1543 1542 1541 1541 1540 1539 1539 1538 1537 1536 1535 1535 1534 1533 1533 1532 1528 1525 1525 1525 1525 1525 1525 1525 1525 1525 1526 1527 1527 1528 1529 1530 1530 1529 1529 1528 1527 1525 1524 1522 1521 1523 1522 1518 1517 1516 1514 1513 1512 1512 1511 1510 1510 1510 1510 1510 1508 1507 1507 1509 1501 1488 1490 1495 1495 1497 1497 1497 1497 1497 1497 1496 1496 1495
1546 1546 1546 1546 1545 1545 1545 1545 1544 1543 1543 1543 1542 1542 1542 1541 1540 1540 1539 1538 1537 1537 1536 1535 1534 1534 1533 1532 1533 1531 1526 1525 1525 1525 1525 1524 1524 1524 1524 1524 1525 1525 1526 1527 1527 1528 1528 1528 1527 1527 1527 1525 1523 1522 1521 1522 1520 1516 1516 1515 1514 1513 1511 1511 1509 1508 1509 1508 1508 1508 1506 1505 1506 1509 1497 1483 1487 1491 1492 1493 1493 1495 1494 1493 1494 1493 1493 1493
1544 1544 1544 1544 1544 1544 1543 1543 1542 1542 1542 1541 1541 1541 1540 1539 1539 1538 1538 1537 1536 1536 1535 1534 1533 1533 1532 1531 1531 1528 1524 1525 1525 1524 1524 1523 1523 1523 1523 1523 1524 1524 1525 1525 1526 1526 1526 1527 1526 1527 1526 1525 1523 1521 1519 1518 1517 1516 1516 1515 1513 1512 1509 1508 1507 1506 1507 1506 1505 1506 1506 1504 1506 1506 1491 1480 1486 1489 1489 1489 1490 1491 1490 1490 1491 1490 1490 1489
1542 1542 1541 1541 1541 1541 1541 1541 1540 1540 1540 1540 1540 1539 1538 1538 1537 1537 1536 1536 1535 1534 1534 1533 1532 1531 1531 1530 1527 1525 1524 1524 1523 1523 1523 1522 1522 1522 1522 1522 1522 1523 1523 1524 1524 1524 1525 1525 1525 1526 1525 1524 1522 1520 1518 1517 1517 1516 1517 1516 1512 1509 1507 1503 1502 1502 1504 1504 1503 1506 1508 1503 1500 1496 1484 1479 1485 1487 1487 1487 1487 1488 1487 1487 1487 1487 1487 1486
1539 1539 1539 1539 1539 1539 1538 1538 1538 1538 1538 1537 1537 1537 1537 1536 1535 1535 1534 1534 1533 1533 1532 1531 1531 1530 1530 1527 1523 1522 1523 1522 1522 1522 1521 1521 1521 1520 1521 1521 1521 1522 1522 1522 1522 1522 1523 1523 1524 1524 1523 1523 1521 1520 1518 1516 1517 1516 1516 1516 1513 1511 1505 1496 1496 1497 1500 1502 1500 1507 1509 1496 1488 1486 1481 1479 1482 1484 1485 1484 1484 1485 1484 1484 1484 1483 1483 1482
1538 1537 1537 1537 1536 1536 1536 1535 1535 1535 1535 1535 1535 1535 1534 1533 1533 1533 1532 1532 1531 1531 1530 1530 1529 1529 1527 1524 1521 1521 1521 1520 1520 1519 1519 1519 1518 1519 1519 1519 1520 1520 1520 1520 1521 1521 1522 1522 1523 1522 1522 1521 1520 1519 1518 1517 1517 1515 1515 1514 1513 1516 1505 1490 1490 1492 1497 1501 1498 1505 1509 1494 1481 1480 1479 1477 1479 1480 1481 1480 1481 1481 1481 1481 1480 1479 1478 1477
1536 1535 1535 1535 1534 1534 1533 1533 1533 1532 1532 1532 1532 1532 1531 1531 1530 1530 1530 1529 1529 1529 1528 1528 1527 1527 1525 1521 1518 1518 1518 1518 1517 1516 1516 1517 1516 1517 1517 1518 1518 1518 1519 1519 1519 1520 1520 1521 1521 1521 1520 1519 1519 1520 1519 1518 1514 1512 1518 1516 1511 1514 1505 1489 1487 1487 1492 1498 1497 1503 1506 1493 1481 1476 1475 1475 1475 1477 1477 1477 1478 1478 1478 1478 1476 1475 1474 1473
1534 1534 1534 1533 1532 1532 1531 1530 1530 1530 1529 1529 1529 1529 1528 1528 1527 1527 1527 1526 1527 1526 1526 1525 1525 1525 1524 1519 1515 1515 1515 1515 1515 1514 1514 1514 1515 1515 1515 1516 1516 1517 1517 1517 1518 1519 1519 1520 1519 1519 1518 1517 1518 1519 1521 1521 1515 1509 1514 1516 1509 1508 1503 1492 1489 1487 1488 1494 1497 1498 1495 1487 1479 1474 1473 1473 1473 1474 1475 1475 1475 1475 1474 1474 1473 1471 1470 1470
1533 1532 1532 1531 1531 1530 1529 1528 1528 1527 1526 1526 1525 1525 1525 1525 1524 1524 1523 1523 1523 1522 1523 1523 1522 1523 1520 1515 1513 1512 1511 1512 1513 1512 1512 1513 1513 1513 1514 1515 1515 1516 1516 1517 1517 1517 1518 1518 1518 1518 1516 1515 1516 1518 1525 1528 1520 1509 1507 1509 1505 1502 1500 1495 1491 1488 1488 1492 1494 1494 1491 1483 1476 1473 1472 1472 1473 1473 1473 1473 1472 1472 1471 1470 1469 1468 1466 1465
1531 1531 1530 1530 1529 1528 1528 1527 1526 1525 1524 1524 1523 1522 1522 1521 1521 1520 1519 1519 1520 1520 1521 1520 1522 1524 1518 1511 1510 1509 1509 1510 1510 1510 1510 1511 1511 1512 1513 1514 1514 1515 1515 1516 1515 1515 1517 1516 1516 1517 1515 1514 1514 1516 1524 1521 1512 1507 1504 1504 1501 1497 1496 1493 1488 1487 1488 1490 1491 1493 1491 1483 1475 1473 1472 1471 1472 1471 1469 1470 1469 1468 1467 1466 1465 1464 1462 1461
1530 1529 1529 1528 1527 1527 1526 1525 1524 1523 1522 1522 1521 1520 1519 1518 1517 1516 1515 1515 1516 1516 1517 1515 1516 1519 1514 1507 1507 1508 1508 1508 1508 1508 1508 1509 1510 1510 1511 1512 1513 1514 1515 1515 1514 1513 1515 1515 1516 1518 1514 1510 1509 1509 1511 1506 1500 1500 1498 1499 1499 1496 1493 1487 1483 1484 1485 1489 1490 1489 1487 1481 1474 1472 1470 1468 1468 1468 1466 1466 1466 1464 1462 1461 1460 1459 1458 1457
1528 1527 1527 1526 1526 1525 1524 1523 1522 1521 1521 1519 1519 1518 1518 1517 1515 1513 1512 1510 1509 1509 1510 1509 1508 1508 1507 1505 1506 1506 1506 1506 1506 1505 1506 1507 1508 1508 1510 1511 1512 1513 1513 1512 1512 1511 1511 1515 1516 1512 1505 1502 1502 1501 1500 1498 1497 1496 1495 1495 1495 1495 1492 1483 1480 1482 1482 1486 1485 1481 1480 1476 1470 1467 1466 1465 1464 1463 1462 1462 1461 1459 1457 1455 1455 1454 1452 1452
1527 1527 1526 1525 1524 1524 1523 1522 1521 1520 1519 1518 1518 1518 1518 1517 1515 1513 1510 1506 1504 1505 1504 1504 1505 1503 1502 1503 1503 1504 1504 1504 1503 1502 1503 1505 1505 1506 1507 1508 1511 1511 1510 1509 1510 1509 1510 1512 1509 1500 1496 1497 1498 1496 1495 1495 1494 1493 1494 1494 1493 1493 1488 1479 1479 1481 1480 1483 1481 1476 1477 1474 1467 1463 1461 1461 1461 1459 1458 1458 1456 1453 1452 1450 1449 1448 1446 1447
1526 1525 1524 1524 1523 1523 1522 1520 1519 1519 1518 1517 1517 1517 1517 1517 1516 1514 1512 1506 1500 1501 1501 1500 1501 1500 1499 1501 1500 1501 1502 1501 1499 1498 1500 1502 1502 1503 1503 1504 1507 1506 1505 1508 1509 1510 1510 1507 1500 1494 1494 1495 1494 1493 1493 1492 1492 1492 1492 1495 1496 1492 1486 1479 1479 1481 1481 1483 1482 1477 1476 1472 1465 1460 1458 1456 1455 1453 1453 1453 1451 1448 1447 1445 1444 1442 1441 1443
1525 1524 1524 1523 1522 1522 1521 1519 1518 1517 1516 1516 1516 1516 1516 1516 1515 1514 1513 1507 1497 1495 1496 1494 1495 1494 1495 1497 1496 1498 1497 1495 1494 1493 1495 1498 1497 1499 1500 1500 1501 1501 1502 1504 1505 1508 1507 1499 1493 1492 1493 1493 1492 1491 1492 1492 1492 1492 1493 1497 1496 1489 1488 1486 1482 1482 1482 1482 1480 1478 1477 1472 1465 1458 1453 1450 1447 1447 1448 1447 1446 1444 1442 1439 1437 1437 1438 1439
1523 1523 1523 1521 1521 1521 1520 1519 1517 1516 1515 1515 1514 1514 1514 1514 1514 1513 1511 1505 1493 1488 1488 1487 1488 1488 1489 1490 1491 1493 1491 1488 1489 1488 1489 1492 1493 1496 1496 1495 1497 1498 1498 1496 1496 1497 1493 1489 1489 1490 1489 1490 1491 1490 1491 1494 1492 1489 1490 1494 1491 1485 1486 1484 1480 1480 1480 1479 1478 1480 1477 1466 1459 1456 1447 1442 1442 1441 1442 1442 1442 1440 1436 1434 1432 1433 1435 1435
1522 1522 1521 1520 1520 1519 1519 1518 1515 1516 1515 1514 1514 1514 1514 1514 1513 1513 1511 1505 1490 1482 1483 1483 1483 1482 1482 1485 1486 1486 1486 1484 1484 1483 1484 1486 1489 1492 1492 1492 1494 1494 1492 1491 1491 1489 1484 1485 1487 1488 1488 1488 1489 1490 1491 1493 1491 1488 1486 1484 1482 1480 1480 1480 1478 1480 1484 1484 1479 1482 1478 1454 1441 1447 1443 1438 1439 1437 1438 1439 1438 1436 1431 1429 1429 1429 1430 1431
1521 1521 1520 1520 1519 1518 1519 1516 1516 1516 1514 1514 1514 1513 1514 1513 1513 1513 1512 1507 1490 1477 1479 1479 1477 1476 1476 1478 1480 1484 1486 1481 1478 1479 1481 1483 1485 1487 1489 1489 1488 1487 1487 1487 1487 1481 1479 1481 1482 1484 1487 1486 1489 1491 1488 1489 1492 1490 1483 1478 1478 1478 1480 1480 1480 1485 1489 1485 1478 1479 1482 1460 1436 1437 1440 1436 1437 1435 1435 1436 1434 1432 1428 1424 1426 1425 1425 1427
1519 1520 1519 1518 1518 1518 1518 1516 1517 1515 1514 1515 1513 1513 1514 1512 1514 1513 1512 1510 1487 1468 1472 1474 1472 1472 1472 1474 1475 1481 1484 1477 1474 1478 1478 1481 1483 1485 1486 1484 1484 1484 1482 1486 1488 1479 1475 1480 1482 1482 1485 1486 1490 1488 1482 1485 1491 1488 1481 1479 1479 1478 1481 1481 1482 1487 1486 1482 1478 1475 1482 1478 1447 1431 1433 1432 1434 1434 1432 1434 1432 1428 1424 1421 1422 1422 1422 1423
1518 1518 1517 1517 1517 1517 1517 1517 1516 1514 1514 1514 1512 1514 1513 1512 1515 1511 1516 1515 1482 1459 1466 1470 1469 1470 1470 1473 1473 1474 1476 1472 1473 1476 1475 1479 1481 1483 1483 1480 1480 1481 1479 1485 1488 1477 1472 1478 1479 1479 1484 1486 1484 1481 1478 1481 1486 1483 1481 1481 1480 1481 1482 1482 1484 1487 1485 1485 1484 1474 1480 1486 1453 1425 1428 1427 1429 1433 1429 1429 1427 1421 1420 1419 1419 1418 1418 1420
1516 1516 1516 1516 1515 1515 1516 1516 1516 1515 1514 1513 1512 1513 1511 1514 1514 1510 1520 1512 1470 1454 1465 1466 1468 1470 1469 1472 1473 1471 1472 1472 1473 1475 1475 1478 1480 1480 1481 1479 1480 1481 1479 1481 1480 1475 1474 1476 1476 1476 1482 1481 1476 1478 1479 1479 1480 1480 1481 1480 1481 1483 1481 1484 1486 1487 1490 1488 1481 1473 1477 1483 1450 1418 1425 1430 1427 1430 1425 1423 1420 1415 1415 1415 1415 1415 1416 1417
1514 1514 1514 1514 1513 1514 1515 1514 1515 1515 1514 1513 1512 1512 1512 1514 1513 1516 1520 1498 1463 1458 1467 1466 1467 1468 1468 1473 1473 1471 1472 1472 1473 1474 1477 1478 1479 1480 1480 1480 1481 1481 1480 1480 1476 1475 1475 1477 1477 1476 1475 1474 1475 1480 1481 1480 1480 1479 1482 1481 1483 1485 1483 1488 1485 1486 1495 1481 1465 1465 1468 1476 1453 1415 1415 1423 1418 1419 1418 1417 1415 1412 1413 1412 1411 1412 1412 1413
1511 1512 1512 1512 1512 1513 1513 1513 1514 1514 1514 1513 1512 1513 1513 1512 1513 1516 1504 1477 1463 1464 1465 1466 1467 1465 1467 1469 1468 1468 1471 1471 1472 1474 1476 1477 1478 1480 1480 1480 1482 1484 1485 1483 1478 1474 1476 1478 1476 1472 1471 1472 1475 1479 1480 1481 1480 1479 1482 1483 1485 1487 1486 1491 1489 1491 1498 1473 1449 1452 1458 1468 1455 1418 1407 1411 1407 1409 1411 1411 1410 1408 1409 1408 1408 1409 1408 1410
1509 1509 1509 1509 1510 1510 1511 1512 1512 1513 1514 1513 1514 1514 1514 1515 1511 1499 1482 1467 1466 1464 1459 1463 1465 1464 1465 1464 1462 1465 1468 1469 1470 1470 1472 1475 1477 1476 1475 1474 1476 1481 1483 1481 1477 1474 1473 1470 1468 1469 1470 1470 1472 1477 1482 1483 1481 1481 1483 1485 1491 1492 1490 1494 1493 1492 1491 1465 1443 1447 1455 1456 1436 1411 1409 1409 1404 1406 1406 1407 1406 1403 1405 1405 1404 1406 1405 1406
1506 1507 1506 1506 1506 1507 1508 1510 1511 1513 1513 1513 1516 1514 1517 1521 1500 1475 1470 1470 1465 1460 1456 1458 1460 1461 1463 1463 1463 1463 1465 1466 1466 1468 1468 1470 1474 1472 1471 1469 1468 1470 1469 1472 1475 1475 1470 1463 1464 1470 1468 1465 1467 1472 1476 1475 1477 1480 1478 1482 1489 1491 1492 1492 1487 1480 1473 1456 1443 1447 1455 1446 1422 1407 1407 1405 1402 1403 1401 1402 1403 1400 1401 1401 1401 1402 1402 1403
1503 1503 1503 1501 1502 1503 1505 1507 1509 1510 1512 1514 1517 1517 1522 1517 1485 1462 1467 1467 1459 1457 1457 1457 1458 1460 1461 1461 1459 1458 1463 1464 1461 1465 1467 1469 1473 1472 1468 1467 1466 1464 1465 1470 1471 1471 1471 1460 1456 1462 1458 1456 1459 1458 1458 1460 1469 1473 1467 1471 1475 1474 1478 1479 1472 1466 1461 1452 1447 1451 1451 1435 1416 1404 1397 1395 1396 1397 1397 1397 1397 1397 1397 1398 1398 1398 1399 1400
1499 1499 1500 1498 1498 1499 1501 1504 1506 1508 1510 1512 1515 1520 1518 1501 1476 1468 1468 1461 1457 1458 1458 1459 1460 1463 1462 1459 1457 1454 1457 1459 1458 1462 1465 1465 1467 1464 1460 1460 1461 1462 1466 1472 1466 1463 1467 1454 1445 1451 1450 1450 1453 1449 1450 1456 1464 1466 1462 1467 1468 1461 1461 1463 1459 1453 1458 1460 1450 1446 1439 1416 1403 1396 1389 1393 1393 1391 1395 1394 1393 1395 1394 1395 1395 1394 1396 1398
1495 1495 1496 1493 1492 1494 1497 1499 1501 1504 1506 1508 1516 1517 1501 1480 1471 1470 1464 1458 1458 1457 1460 1462 1460 1464 1464 1459 1457 1455 1454 1456 1457 1460 1462 1461 1459 1455 1452 1451 1453 1456 1458 1462 1459 1456 1460 1451 1446 1452 1451 1450 1453 1450 1451 1454 1456 1460 1463 1463 1458 1452 1453 1460 1461 1452 1458 1466 1443 1428 1426 1410 1401 1392 1381 1388 1392 1389 1393 1393 1391 1392 1390 1391 1392 1392 1395 1395
1490 1490 1490 1487 1486 1490 1493 1495 1498 1500 1501 1503 1510 1504 1484 1470 1466 1464 1459 1458 1459 1457 1460 1463 1458 1459 1461 1456 1455 1455 1455 1456 1456 1458 1459 1458 1452 1446 1446 1445 1445 1448 1448 1450 1450 1448 1450 1448 1446 1452 1453 1453 1454 1452 1452 1451 1451 1456 1461 1456 1450 1453 1454 1457 1466 1461 1463 1466 1438 1418 1421 1415 1410 1397 1378 1382 1391 1387 1389 1388 1388 1389 1387 1388 1389 1391 1393 1393
1486 1486 1483 1479 1482 1486 1489 1492 1493 1495 1498 1500 1502 1491 1475 1468 1465 1463 1462 1461 1461 1459 1461 1461 1454 1450 1452 1451 1449 1450 1454 1455 1454 1457 1455 1451 1443 1434 1437 1441 1439 1440 1441 1444 1447 1444 1445 1448 1447 1453 1456 1455 1455 1455 1454 1452 1452 1453 1454 1453 1451 1457 1458 1457 1465 1465 1463 1464 1440 1419 1419 1411 1401 1392 1380 1383 1388 1384 1384 1384 1384 1385 1385 1387 1388 1388 1390 1391
1483 1483 1477 1474 1478 1482 1485 1488 1487 1490 1494 1496 1497 1486 1471 1465 1463 1464 1466 1464 1464 1463 1461 1458 1453 1449 1447 1446 1444 1445 1450 1449 1449 1453 1450 1445 1438 1428 1429 1433 1433 1435 1435 1439 1444 1441 1442 1447 1447 1453 1458 1457 1456 1457 1454 1452 1454 1455 1455 1455 1452 1453 1454 1452 1454 1452 1451 1455 1443 1430 1422 1397 1378 1376 1374 1376 1379 1379 1380 1381 1382 1383 1383 1384 1385 1386 1387 1388
1481 1480 1474 1471 1475 1478 1481 1483 1483 1486 1488 1486 1485 1478 1468 1465 1464 1463 1464 1465 1464 1463 1460 1457 1454 1452 1447 1444 1443 1442 1445 1444 1444 1448 1444 1438 1433 1427 1425 1426 1429 1431 1431 1434 1438 1438 1442 1445 1444 1452 1460 1457 1450 1447 1446 1443 1446 1452 1456 1456 1453 1452 1452 1451 1448 1440 1439 1445 1444 1442 1428 1387 1362 1366 1367 1368 1374 1375 1377 1379 1380 1382 1381 1381 1382 1383 1385 1386
1480 1478 1472 1469 1472 1474 1478 1480 1478 1480 1481 1479 1476 1471 1468 1467 1465 1463 1463 1464 1463 1460 1459 1457 1456 1455 1451 1448 1445 1442 1442 1442 1441 1442 1439 1434 1431 1429 1425 1423 1425 1428 1430 1435 1436 1435 1440 1441 1440 1447 1452 1446 1436 1432 1432 1429 1429 1436 1441 1441 1442 1445 1448 1452 1448 1434 1432 1437 1433 1437 1428 1385 1359 1365 1365 1366 1373 1372 1373 1376 1376 1378 1379 1380 1381 1381 1383 1384
1477 1474 1470 1469 1470 1471 1474 1477 1475 1474 1474 1472 1467 1465 1467 1466 1464 1463 1463 1463 1462 1460 1459 1457 1455 1455 1452 1450 1448 1444 1443 1442 1439 1438 1435 1430 1429 1428 1425 1423 1423 1424 1427 1431 1429 1427 1430 1434 1436 1437 1433 1428 1425 1424 1425 1423 1422 1425 1428 1427 1430 1434 1437 1440 1439 1430 1430 1433 1426 1428 1422 1382 1357 1365 1368 1367 1372 1371 1371 1373 1374 1375 1376 1376 1379 1380 1380 1380
1473 1470 1468 1469 1469 1469 1472 1473 1473 1473 1470 1466 1463 1462 1464 1463 1462 1462 1462 1461 1461 1459 1458 1457 1455 1454 1451 1450 1449 1447 1446 1443 1439 1437 1434 1431 1429 1427 1425 1425 1424 1423 1424 1425 1425 1423 1427 1432 1434 1433 1427 1421 1420 1421 1423 1424 1424 1425 1424 1423 1424 1425 1424 1423 1424 1421 1423 1426 1423 1423 1414 1381 1360 1366 1369 1367 1370 1372 1371 1371 1372 1374 1373 1375 1377 1377 1377 1377
1469 1467 1467 1467 1467 1467 1467 1467 1468 1469 1468 1465 1465 1463 1462 1461 1460 1459 1458 1458 1457 1456 1455 1454 1452 1452 1451 1450 1449 1448 1449 1448 1443 1438 1437 1436 1431 1428 1428 1427 1427 1426 1424 1423 1422 1422 1425 1428 1430 1435 1437 1433 1429 1426 1424 1425 1426 1424 1421 1419 1418 1418 1420 1420 1420 1421 1420 1418 1412 1409 1402 1382 1365 1367 1370 1369 1369 1370 1371 1370 1371 1372 1372 1373 1374 1373 1373 1373
1467 1465 1463 1463 1464 1462 1458 1457 1459 1461 1462 1463 1462 1460 1459 1457 1455 1454 1453 1452 1452 1453 1452 1449 1448 1449 1450 1450 1450 1447 1447 1449 1448 1443 1442 1440 1435 1431 1431 1430 1430 1429 1427 1425 1422 1420 1422 1422 1424 1434 1440 1439 1435 1425 1416 1419 1425 1424 1419 1417 1416 1417 1420 1420 1421 1423 1420 1411 1402 1399 1394 1381 1368 1367 1369 1368 1368 1369 1369 1369 1369 1370 1370 1370 1370 1370 1370 1369
1465 1462 1459 1458 1459 1456 1452 1451 1452 1452 1454 1458 1457 1454 1455 1453 1448 1447 1447 1446 1446 1446 1445 1444 1446 1448 1449 1449 1449 1446 1443 1444 1446 1445 1444 1442 1437 1431 1430 1429 1430 1430 1429 1429 1427 1425 1425 1422 1420 1425 1427 1426 1423 1415 1408 1412 1420 1421 1417 1415 1416 1416 1416 1418 1420 1419 1412 1404 1398 1394 1390 1383 1377 1373 1367 1363 1364 1367 1367 1366 1366 1366 1366 1366 1366 1367 1366 1365
1463 1459 1455 1455 1455 1452 1449 1448 1447 1446 1447 1450 1448 1445 1446 1446 1444 1443 1442 1440 1438 1439 1439 1441 1443 1445 1445 1446 1446 1443 1440 1440 1442 1442 1440 1439 1435 1430 1428 1427 1427 1426 1426 1429 1429 1429 1430 1428 1422 1419 1418 1415 1414 1411 1408 1410 1412 1414 1414 1414 1414 1414 1413 1415 1414 1407 1403 1401 1395 1389 1387 1383 1378 1374 1366 1361 1360 1362 1363 1363 1362 1360 1360 1361 1362 1363 1362 1361
1462 1457 1453 1454 1453 1450 1447 1446 1445 1444 1443 1443 1440 1436 1437 1438 1439 1439 1437 1434 1433 1435 1437 1437 1437 1437 1437 1438 1439 1437 1436 1437 1437 1436 1434 1433 1431 1429 1428 1426 1424 1423 1425 1427 1428 1427 1428 1427 1425 1422 1419 1416 1415 1413 1411 1409 1407 1408 1410 1410 1410 1411 1412 1412 1406 1398 1397 1397 1390 1385 1382 1376 1371 1370 1367 1361 1358 1358 1359 1359 1356 1355 1354 1355 1357 1358 1358 1356
1461 1457 1454 1454 1453 1449 1446 1445 1445 1444 1443 1442 1439 1435 1434 1432 1430 1430 1430 1431 1430 1431 1433 1432 1430 1429 1429 1428 1430 1430 1431 1431 1428 1425 1423 1423 1424 1425 1425 1423 1420 1421 1422 1423 1423 1423 1423 1423 1424 1425 1423 1420 1419 1416 1413 1411 1408 1406 1407 1407 1406 1407 1406 1403 1398 1394 1395 1393 1386 1382 1378 1371 1367 1366 1363 1359 1358 1358 1356 1353 1350 1350 1350 1350 1351 1352 1352 1351
1460 1458 1456 1454 1452 1450 1447 1445 1445 1444 1442 1442 1439 1435 1434 1432 1428 1426 1426 1427 1427 1426 1427 1425 1422 1422 1423 1423 1424 1423 1422 1421 1417 1412 1411 1413 1416 1418 1419 1416 1415 1418 1420 1420 1420 1420 1420 1419 1419 1423 1424 1419 1416 1415 1412 1411 1409 1405 1402 1402 1404 1404 1400 1395 1393 1393 1394 1390 1382 1380 1379 1372 1366 1362 1360 1360 1359 1357 1353 1348 1345 1345 1346 1345 1345 1346 1346 1345
1458 1457 1458 1456 1452 1450 1448 1445 1444 1444 1441 1440 1437 1434 1432 1431 1429 1427 1424 1422 1423 1424 1423 1421 1419 1419 1419 1419 1419 1417 1414 1411 1408 1403 1402 1404 1407 1408 1407 1405 1407 1412 1416 1416 1415 1416 1418 1417 1415 1420 1420 1411 1407 1408 1406 1405 1406 1404 1403 1402 1400 1395 1389 1386 1385 1384 1383 1380 1376 1379 1378 1368 1360 1359 1361 1359 1355 1351 1348 1344 1342 1341 1340 1340 1340 1340 1339 1339
1457 1456 1457 1457 1452 1448 1447 1445 1445 1444 1439 1436 1433 1431 1430 1428 1427 1428 1425 1419 1419 1421 1420 1419 1419 1418 1416 1415 1413 1411 1409 1406 1404 1401 1400 1399 1399 1399 1399 1398 1398 1402 1407 1409 1409 1410 1412 1411 1409 1412 1409 1400 1397 1397 1396 1401 1403 1399 1398 1393 1383 1376 1376 1376 1376 1373 1370 1368 1369 1369 1362 1354 1353 1358 1358 1352 1347 1343 1339 1336 1337 1338 1335 1333 1333 1333 1334 1333